Jasno s ojedinelými nízkymi oblakmi a ojedinelou riasovou slohou
Spojené s riasovitými oblakmi a s možnosťou niekoľkých búrkových oblakov
Spojené s riasovitými oblakmi a s možnosťou niekoľkých búrkových oblakov
Spojené s riasovitými oblakmi a s možnosťou niekoľkých búrkových oblakov
Spojené s riasovitými oblakmi a s možnosťou niekoľkých búrkových oblakov
Spojené s riasovitými oblakmi a s možnosťou niekoľkých búrkových oblakov
Spojené s riasovitými oblakmi a s možnosťou niekoľkých búrkových oblakov
Jasno s ojedinelými nízkymi oblakmi a riasovou slohou
Jasno s ojedinelými riasovitými oblakmi
(°C)
30°
30°
31°
31°
31°
31°
30°
30°
29°
29°
27°
27°
26°
26°
24°
24°
23°
23°
(°C)
32°
32°
31°
30°
30°
28°
27°
25°
23°
JV
V
VSV
S
SV
ZJZ
V
S
SSZ
(km/h)
9-21
9-18
9-18
9-16
8-17
8-16
8-16
8-19
8-19
(mm)
0
0
0
0
0
0
0
0
0
(%)
0
10
15
5
10
5
5
5
1

Výška Slnka nad obzorom

/ 49.5°
sun-icon
UV 7
05:32
21:08
Dorastajúci polmesiac (107°)
15:34
00:37

Správy METAR pre lokalitu Innsbruck (LOWI)

Čas Podmienky Teplota/
Rosný bod
Vietor Viditeľnosť Počasie Oblaky Tlak Zmeniť Nespracované
VFR 31°C / 15°C 70º variable 040º to 100º 10kt 9700m - Few Clouds 10000ft 1012 No Significant change LOWI 151320Z AUTO 07010KT 040V100 9999 FEW100 31/15 Q1012 NOSIG
VFR 30°C / 16°C 60º 10kt 9700m - Few Clouds 10000ft 1012 No Significant change LOWI 151250Z AUTO 06010KT 9999 FEW100 30/16 Q1012 NOSIG
VFR 29°C / 18°C 80º variable 040º to 130º 8kt 9700m - Clear 1013 No Significant change LOWI 151220Z AUTO 08008KT 040V130 9999 NCD 29/18 Q1013 NOSIG
VFR 28°C / 16°C 80º variable 040º to 140º 6kt 9700m - Clear 1013 No Significant change LOWI 151150Z AUTO 08006KT 040V140 9999 NCD 28/16 Q1013 NOSIG
VFR 28°C / 17°C 110º variable 040º to 180º 4kt 9700m - Clear 1014 No Significant change LOWI 151120Z AUTO 11004KT 040V180 9999 NCD 28/17 Q1014 NOSIG
VFR 27°C / 17°C 2kt 9700m - Clear 1014 No Significant change LOWI 151050Z VRB02KT 9999 NSC 27/17 Q1014 NOSIG
VFR 26°C / 16°C 2kt 9700m - Clear 1014 Becoming: Wind 100º 8kt. LOWI 151020Z AUTO VRB02KT 9999 NCD 26/16 Q1014 BECMG 10008KT
VFR 25°C / 15°C 2kt 9700m - Clear 1015 No Significant change LOWI 150950Z AUTO VRB02KT 9999 NCD 25/15 Q1015 NOSIG
VFR 24°C / 16°C 290º variable 220º to 350º 3kt 9700m - Clear 1015 No Significant change LOWI 150920Z AUTO 29003KT 220V350 9999 NCD 24/16 Q1015 NOSIG
VFR 23°C / 16°C 260º variable 170º to 320º 3kt 9700m - Clear 1016 No Significant change LOWI 150850Z AUTO 26003KT 170V320 9999 NCD 23/16 Q1016 NOSIG
VFR 22°C / 15°C 2kt 9700m - Clear 1016 No Significant change LOWI 150820Z AUTO VRB02KT 9999 NCD 22/15 Q1016 NOSIG
VFR 21°C / 16°C 270º 6kt 9700m - Clear 1017 No Significant change LOWI 150750Z AUTO 27006KT 9999 NCD 21/16 Q1017 NOSIG
VFR 20°C / 15°C 260º variable 230º to 290º 5kt 9700m - Clear 1017 No Significant change LOWI 150720Z AUTO 26005KT 230V290 9999 NCD 20/15 Q1017 NOSIG
VFR 19°C / 15°C 250º 5kt 9700m - Clear 1018 No Significant change LOWI 150650Z AUTO 25005KT 9999 NCD 19/15 Q1018 NOSIG
VFR 18°C / 16°C 280º 3kt 9700m - Clear 1018 No Significant change LOWI 150620Z AUTO 28003KT 9999 NCD 18/16 Q1018 NOSIG
VFR 18°C / 15°C 290º variable 260º to 320º 5kt 9700m - Clear 1018 No Significant change LOWI 150550Z AUTO 29005KT 260V320 9999 NCD 18/15 Q1018 NOSIG
VFR 17°C / 15°C 280º 2kt 9700m - Clear 1018 No Significant change LOWI 150520Z AUTO 28002KT 9999 NCD 17/15 Q1018 NOSIG
VFR 16°C / 15°C 280º 2kt 9700m - Clear 1018 No Significant change LOWI 150450Z AUTO 28002KT 9999 NCD 16/15 Q1018 NOSIG
VFR 16°C / 15°C 260º 2kt 9700m - Clear 1018 No Significant change LOWI 150420Z AUTO 26002KT 9999 NCD 16/15 Q1018 NOSIG
VFR 15°C / 14°C 270º 3kt 9700m - Clear 1018 No Significant change LOWI 150350Z AUTO 27003KT 9999 NCD 15/14 Q1018 NOSIG
VFR 15°C / 14°C 230º variable 200º to 280º 3kt 9700m - Clear 1018 - LOWI 150320Z AUTO 23003KT 200V280 9999 NCD 15/14 Q1018
VFR 15°C / 14°C 1kt 9700m - Clear 1018 - LOWI 150250Z AUTO VRB01KT 9999 NCD 15/14 Q1018
VFR 16°C / 15°C 1kt 9700m - Clear 1018 - LOWI 150220Z AUTO VRB01KT 9999 NCD 16/15 Q1018
VFR 16°C / 15°C 1kt 9700m - Clear 1018 - LOWI 150150Z AUTO VRB01KT 9999 NCD 16/15 Q1018

VFR

31°C / 15°C

[Viac]
Vietor 70º variable 040º to 100º 10kt
Viditeľnosť 9700m
Počasie -
Oblaky Few Clouds 10000ft
Tlak 1012
Zmeniť No Significant change
Nespracované LOWI 151320Z AUTO 07010KT 040V100 9999 FEW100 31/15 Q1012 NOSIG

VFR

30°C / 16°C

[Viac]
Vietor 60º 10kt
Viditeľnosť 9700m
Počasie -
Oblaky Few Clouds 10000ft
Tlak 1012
Zmeniť No Significant change
Nespracované LOWI 151250Z AUTO 06010KT 9999 FEW100 30/16 Q1012 NOSIG

VFR

29°C / 18°C

[Viac]
Vietor 80º variable 040º to 130º 8kt
Viditeľnosť 9700m
Počasie -
Oblaky Clear
Tlak 1013
Zmeniť No Significant change
Nespracované LOWI 151220Z AUTO 08008KT 040V130 9999 NCD 29/18 Q1013 NOSIG

VFR

28°C / 16°C

[Viac]
Vietor 80º variable 040º to 140º 6kt
Viditeľnosť 9700m
Počasie -
Oblaky Clear
Tlak 1013
Zmeniť No Significant change
Nespracované LOWI 151150Z AUTO 08006KT 040V140 9999 NCD 28/16 Q1013 NOSIG

VFR

28°C / 17°C

[Viac]
Vietor 110º variable 040º to 180º 4kt
Viditeľnosť 9700m
Počasie -
Oblaky Clear
Tlak 1014
Zmeniť No Significant change
Nespracované LOWI 151120Z AUTO 11004KT 040V180 9999 NCD 28/17 Q1014 NOSIG

VFR

27°C / 17°C

[Viac]
Vietor 2kt
Viditeľnosť 9700m
Počasie -
Oblaky Clear
Tlak 1014
Zmeniť No Significant change
Nespracované LOWI 151050Z VRB02KT 9999 NSC 27/17 Q1014 NOSIG

VFR

26°C / 16°C

[Viac]
Vietor 2kt
Viditeľnosť 9700m
Počasie -
Oblaky Clear
Tlak 1014
Zmeniť Becoming: Wind 100º 8kt.
Nespracované LOWI 151020Z AUTO VRB02KT 9999 NCD 26/16 Q1014 BECMG 10008KT

VFR

25°C / 15°C

[Viac]
Vietor 2kt
Viditeľnosť 9700m
Počasie -
Oblaky Clear
Tlak 1015
Zmeniť No Significant change
Nespracované LOWI 150950Z AUTO VRB02KT 9999 NCD 25/15 Q1015 NOSIG

VFR

24°C / 16°C

[Viac]
Vietor 290º variable 220º to 350º 3kt
Viditeľnosť 9700m
Počasie -
Oblaky Clear
Tlak 1015
Zmeniť No Significant change
Nespracované LOWI 150920Z AUTO 29003KT 220V350 9999 NCD 24/16 Q1015 NOSIG

VFR

23°C / 16°C

[Viac]
Vietor 260º variable 170º to 320º 3kt
Viditeľnosť 9700m
Počasie -
Oblaky Clear
Tlak 1016
Zmeniť No Significant change
Nespracované LOWI 150850Z AUTO 26003KT 170V320 9999 NCD 23/16 Q1016 NOSIG

VFR

22°C / 15°C

[Viac]
Vietor 2kt
Viditeľnosť 9700m
Počasie -
Oblaky Clear
Tlak 1016
Zmeniť No Significant change
Nespracované LOWI 150820Z AUTO VRB02KT 9999 NCD 22/15 Q1016 NOSIG

VFR

21°C / 16°C

[Viac]
Vietor 270º 6kt
Viditeľnosť 9700m
Počasie -
Oblaky Clear
Tlak 1017
Zmeniť No Significant change
Nespracované LOWI 150750Z AUTO 27006KT 9999 NCD 21/16 Q1017 NOSIG

VFR

20°C / 15°C

[Viac]
Vietor 260º variable 230º to 290º 5kt
Viditeľnosť 9700m
Počasie -
Oblaky Clear
Tlak 1017
Zmeniť No Significant change
Nespracované LOWI 150720Z AUTO 26005KT 230V290 9999 NCD 20/15 Q1017 NOSIG

VFR

19°C / 15°C

[Viac]
Vietor 250º 5kt
Viditeľnosť 9700m
Počasie -
Oblaky Clear
Tlak 1018
Zmeniť No Significant change
Nespracované LOWI 150650Z AUTO 25005KT 9999 NCD 19/15 Q1018 NOSIG

VFR

18°C / 16°C

[Viac]
Vietor 280º 3kt
Viditeľnosť 9700m
Počasie -
Oblaky Clear
Tlak 1018
Zmeniť No Significant change
Nespracované LOWI 150620Z AUTO 28003KT 9999 NCD 18/16 Q1018 NOSIG

VFR

18°C / 15°C

[Viac]
Vietor 290º variable 260º to 320º 5kt
Viditeľnosť 9700m
Počasie -
Oblaky Clear
Tlak 1018
Zmeniť No Significant change
Nespracované LOWI 150550Z AUTO 29005KT 260V320 9999 NCD 18/15 Q1018 NOSIG

VFR

17°C / 15°C

[Viac]
Vietor 280º 2kt
Viditeľnosť 9700m
Počasie -
Oblaky Clear
Tlak 1018
Zmeniť No Significant change
Nespracované LOWI 150520Z AUTO 28002KT 9999 NCD 17/15 Q1018 NOSIG

VFR

16°C / 15°C

[Viac]
Vietor 280º 2kt
Viditeľnosť 9700m
Počasie -
Oblaky Clear
Tlak 1018
Zmeniť No Significant change
Nespracované LOWI 150450Z AUTO 28002KT 9999 NCD 16/15 Q1018 NOSIG

VFR

16°C / 15°C

[Viac]
Vietor 260º 2kt
Viditeľnosť 9700m
Počasie -
Oblaky Clear
Tlak 1018
Zmeniť No Significant change
Nespracované LOWI 150420Z AUTO 26002KT 9999 NCD 16/15 Q1018 NOSIG

VFR

15°C / 14°C

[Viac]
Vietor 270º 3kt
Viditeľnosť 9700m
Počasie -
Oblaky Clear
Tlak 1018
Zmeniť No Significant change
Nespracované LOWI 150350Z AUTO 27003KT 9999 NCD 15/14 Q1018 NOSIG

VFR

15°C / 14°C

[Viac]
Vietor 230º variable 200º to 280º 3kt
Viditeľnosť 9700m
Počasie -
Oblaky Clear
Tlak 1018
Zmeniť -
Nespracované LOWI 150320Z AUTO 23003KT 200V280 9999 NCD 15/14 Q1018

VFR

15°C / 14°C

[Viac]
Vietor 1kt
Viditeľnosť 9700m
Počasie -
Oblaky Clear
Tlak 1018
Zmeniť -
Nespracované LOWI 150250Z AUTO VRB01KT 9999 NCD 15/14 Q1018

VFR

16°C / 15°C

[Viac]
Vietor 1kt
Viditeľnosť 9700m
Počasie -
Oblaky Clear
Tlak 1018
Zmeniť -
Nespracované LOWI 150220Z AUTO VRB01KT 9999 NCD 16/15 Q1018

VFR

16°C / 15°C

[Viac]
Vietor 1kt
Viditeľnosť 9700m
Počasie -
Oblaky Clear
Tlak 1018
Zmeniť -
Nespracované LOWI 150150Z AUTO VRB01KT 9999 NCD 16/15 Q1018

Správy TAF pre lokalitu Innsbruck (LOWI)

From till


Maximum Temperature 30ºC on . Minimum Temperature 17ºC on .
From till Wind 110º 10kt. Visibility 9700m. Few Clouds 5000ft.
With 30% probability, Temporarly from till Wind 15kt. Gust 25kt. Thunderstorm Rain . Few Clouds 4000ft. Broken Clouds 5000ft.
Becoming from till
Temporarly from till Showers Rain .
With 40% probability, Temporarly from till Wind 270º 20kt. Gust 30kt. Thunderstorm Rain . Few Clouds 3000ft. Broken Clouds 4000ft.
Becoming from till

Nespracované: TAF LOWI 151115Z 1512/1612 11010KT 9999 FEW050 TX30/1514Z TN17/1603Z PROB30 TEMPO 1515/1519 VRB15G25KT TSRA FEW040CB BKN050 BECMG 1519/1521 27007KT TEMPO 1600/1608 SHRA PROB40 TEMPO 1600/1606 27020G30KT TSRA FEW030CB BKN040 BECMG 1609/1611 09008KT

Radar a krátkodobá predpoveď zrážok pre Innsbruck

Mrholenie
Slabý
Mierne
Ťažké
Veľmi ťažké
Krúpy

Značka polohy je umiestnená na Innsbruck. Táto animácia zobrazuje zrážkový radar pre vybraný časový rozsah, ako aj 2h predpoveď. Oranžové krížiky označujú blesky. Údaje poskytol nowcast.de (k dispozícii v USA, Európe a Austrálii). Mrholenie alebo slabé sneženie môže byť pre radar neviditeľné. Intenzita zrážok je farebne označená od tyrkysovej po červenú.

Aktuálne satelitné snímky a snímky zrážok pre lokalitu Innsbruck, Rakúsko

Značka polohy je umiestnená naInnsbruck. [Viac]

Satelitné snímky zhotovované v reálnom čase využívajú viditeľné svetlo počas dňa a infračervené žiarenie počas noci. Vzhľadom na to, že infračervené žiarenie zisťuje teplotné rozdiely, snímka v noci nie je tmavá. Nízke oblaky a hmlu je, žiaľ, ťažké odlíšiť od prízemných teplôt, preto môžu byť počas noci takmer neviditeľné. Meteosat satelitné snímky pre Európu sú aktualizované v reálnom čase každých 5 minút. Snímky z GOES-16/GOES-17 (Severná a Južná Amerika) a Himawari (Ázia) sú aktualizované každých 10 minút.

Zrážky sa odhadujú z radarov a satelitov. Odhady zrážok zo satelitov sú v noci menej presné ako počas dňa.

© 2024 meteoblue, NOAA Satellites GOES-16 and EUMETSAT. Údaje o bleskoch poskytuje nowcast.

Späť nahor
×
Dobrý deň,
zdá sa, že používate blokovač reklám.

Inzercia je nevyhnutná na udržiavanie našej bezplatnej webovej stránky s jedinečnými detailmi a presnosťou.

Prosím, zapíšte si www.meteoblue.com na bielu listinu blokovača reklám alebo zvážte kúpu niektorého z našich produktov:

Už máte predplatné?
Potom sa prosím prihláste.